Regional Weather Roundup
Issued by NWS

Home | Current Version | Previous Version | Text Only | Print | Product List | Glossary On
Versions: 1 2 3 4 5 6 7 8 9 10 11 12 13 14 15 16 17 18 19 20 21 22 23 24 25 26 27 28 29 30 31 32 33 34 35 36 37 38 39 40 41 42 43 44 45 46 47 48 49 50
000
ASUS42 KTBW 230417
RWRFL
FLORIDA REGIONAL WEATHER ROUNDUP
NATIONAL WEATHER SERVICE TAMPA BAY RUSKIN FL
1200 AM EDT SAT MAY 23 2015

NOTE: "FAIR" INDICATES FEW OR NO CLOUDS BELOW 12,000 FEET WITH NO
SIGNIFICANT WEATHER AND/OR OBSTRUCTIONS TO VISIBILITY.


FLZ001>010-012>015-112-114-115-230500-
PANHANDLE FLORIDA

CITY           SKY/WX    TMP DP  RH WIND       PRES   REMARKS
PENSACOLA      CLEAR     75  57  53 NE6       30.19R
PENSACOLA NAS  CLEAR     70  67  90 N5        30.18S
MILTON NAS     CLEAR     70  56  61 N3        30.20
CRESTVIEW      CLEAR     65  57  75 CALM      30.22R
DUKE FIELD       N/A     65  58  77 N3        30.20R
VALPARAISO     CLEAR     73  55  53 N5        30.19R
MARY ESTHER    CLEAR     68  62  81 CALM      30.18R
TRI COUNTY     FAIR      64  62  93 CALM      30.21R
PANAMA CITY    FAIR      67  62  84 NW5       30.19R
TYNDALL AFB    CLEAR     72  60  67 E2        30.19R
APALACHICOLA   CLEAR     73  64  73 E5        30.18S

STATION/POSITION SKY/WX   TEMP    WIND        PRES    WAVE   SWELL
                          AIR SEA DIR/SP/G            HT/PER HT/PER
                          (F)     (DEG/KT/KT) (MB)    (FT/S) (FT/S)
30.1N   87.6W              78 81  350/  2/  4 1021.5R   1
29.2N   88.2W              78 81   90/ 10/ 12 1022.0R   2/ 5   2/ 5
28.8N   86.0W              78 81  100/  4/  6 1022.0F   1/ 4   2/ 4
PANAMA CITY BEAC           75 78   20/  5/  6 1021.8R
CAPE SAN BLAS    NOT AVBL
TOWER C                    78     310/  3/  4 1021.9F
28.5N   84.5W              79 80  330/  8/ 10 1021.7F   1/ 4

$$
FLZ011-016>038-118-127-128-134-139-239-230500-
NORTH FLORIDA

CITY           SKY/WX    TMP DP  RH WIND       PRES   REMARKS
MARIANNA       LGT RAIN  70  57  63 NE3       30.19R
TALLAHASSEE    CLEAR     70  58  65 CALM      30.19S
PERRY          MOCLDY    67  60  79 CALM      30.20S
CROSS CITY       N/A     74  62  66 NE3       30.20R
LAKE CITY      FAIR      68  64  88 E3        30.22S
GAINESVILLE    PTCLDY    70  66  87 CALM      30.22R
MAYPORT NAS    CLEAR     73  68  84 NE16      30.21S
JACKSONVILLE   PTCLDY    69  66  90 NE5       30.21S
JAX NAS        PTCLDY    77  68  73 NE8       30.22S
JAX CRAIG      CLEAR     73  67  81 NE8       30.22S
JAX CECIL      CLEAR     68  66  94 CALM      30.22S
FERNANDINA BEA FAIR      77  68  73 NE9       30.21S
ST AUGUSTINE   PTCLDY    75  70  84 NE12      30.22R

STATION/POSITION SKY/WX   TEMP    WIND        PRES    WAVE   SWELL
                          AIR SEA DIR/SP/G            HT/PER HT/PER
                          (F)     (DEG/KT/KT) (MB)    (FT/S) (FT/S)
SHELL POINT                76      30/  2/  3   N/A
KEATON BEACH               72      50/  4/  5 1022.4R
CEDAR KEY                  79      80/ 12/ 14 1022.5R
FERNANDINA                 73 80   70/  8/ 11 1022.7R
30.7N   81.3W                 76                N/A     5/ 6
MAYPORT                    74 76   60/ 14/ 16 1023.3R
31.4N   80.9W              73 76   60/ 16/ 17 1023.6R   4/ 7   2/ 7
ST AUGUSTINE               74 75   40/ 13/ 14 1023.7R

$$
FLZ040-043>046-052-053-057-058-063-144-230500-
INTERIOR CENTRAL FLORIDA

CITY           SKY/WX    TMP DP  RH WIND       PRES   REMARKS
OCALA          PTCLDY    75  64  69 NE3       30.22S
THE VILLAGES     N/A     75  70  83 N5        30.11S
LEESBURG       PTCLDY    77  67  71 NE7       30.21F
SANFORD        CLOUDY    76  68  76 CALM      30.20S
ORLANDO EXEC   CLOUDY    77  69  76 NE5       30.19F
ORLANDO INTL   CLOUDY    78  71  79 NE7       30.18F
WINTER HAVEN   MOCLDY    74  72  93 NE3       30.19S
LAKELAND       PTCLDY    73  68  83 NE6       30.18S
BARTOW         FAIR      72 N/A N/A N3        30.18F
OKEECHOBEE     CLOUDY    72  70  94 N6        30.18R

$$
FLZ041-047-054-059-064-141-147-230500-
EAST CENTRAL FLORIDA

CITY           SKY/WX    TMP DP  RH WIND       PRES   REMARKS
DAYTONA BEACH  MOCLDY    77  72  84 NE6       30.21R
DELAND           N/A     73  68  83 W6        30.23R
JFK SPACE CTR  CLOUDY    73  69  86 NW3       30.18R
CAPE CANAVERAL CLOUDY    73  69  86 NW2       30.17S
PATRICK AFB    CLOUDY    79  71  75 NE1       30.17S
MELBOURNE      CLOUDY    78  72  81 N6        30.17F
VERO BEACH     CLOUDY    73  69  87 N5        30.17S
FT PIERCE      MOCLDY    76  71  85 NW5       30.16F
STUART         MOCLDY    77  72  83 CALM      30.17S

STATION/POSITION SKY/WX   TEMP    WIND        PRES    WAVE   SWELL
                          AIR SEA DIR/SP/G            HT/PER HT/PER
                          (F)     (DEG/KT/KT) (MB)    (FT/S) (FT/S)
28.5N   80.2W              81 81   40/  4/  4 1022.0R
28.9N   78.5W              80 81   10/  6/  6 1021.4R
TRIDENT PIER               76 82  330/  2/  3 1022.6R
28.4N   80.5W                 81                N/A     1/ 8
27.5N   80.2W                 81                N/A     1/ 9

$$
FLZ050-056-061-142-242-148-248-149-249-151-251-155-255-
160-260-230500-
WEST CENTRAL FLORIDA

CITY           SKY/WX    TMP DP  RH WIND       PRES   REMARKS
CRYSTAL RIVER  FAIR      77  68  73 E7        30.19R
INVERNESS      FAIR      73  70  88 E3        30.20S
BROOKSVILLE    CLEAR     76  69  79 E8        30.19R
CLEARWATER     CLEAR     76  69  79 SW3       30.16F
TAMPA INTL     CLEAR     77  68  73 CALM      30.16F
TAMPA EXEC     CLEAR     75  70  83 E3        30.18S
PLANT CITY     PTCLDY    75  72  88 CALM      30.20R
MACDILL AFB    CLEAR     76  69  79 E2        30.15F
PETER O KNIGHT CLEAR     77  70  78 NE3       30.17S
ST PETERSBURG  CLEAR     79  70  74 NW5       30.14F
SARASOTA       CLEAR     74  66  76 N3        30.14S
VENICE         FAIR      75  68  78 E5        30.16R

STATION/POSITION SKY/WX   TEMP    WIND        PRES    WAVE   SWELL
                          AIR SEA DIR/SP/G            HT/PER HT/PER
                          (F)     (DEG/KT/KT) (MB)    (FT/S) (FT/S)
CEDAR KEY                  79      80/ 12/ 14 1022.5R
28.5N   84.5W              79 80  330/  8/ 10 1021.7F   1/ 4
27.3N   84.2W                 82                N/A     1/ 4
CLEARWATER BEACH           82 86   90/  2/  5 1021.8R
MIDDLE TAMPA BAY           75     170/  6/  9 1021.8R
VENICE                     76 85   90/  6/  7 1020.8R

$$
FLZ066-069-070-075>078-162-262-165-265-230500-
SOUTHWEST FLORIDA AND KEYS

CITY           SKY/WX    TMP DP  RH WIND       PRES   REMARKS
PUNTA GORDA    PTCLDY    71  70  96 SE5       30.17S
FT MYERS       PTCLDY    73  71  93 CALM      30.15S
SOUTHWEST INTL PTCLDY    72  70  93 NW5       30.15F
NAPLES         PTCLDY    74  70  87 CALM      30.16R
MARCO ISLAND   PTCLDY    73  66  78 SE3       30.15S
IMMOKALEE      CLEAR    N/A N/A N/A CALM      30.17R
MARATHON       CLEAR     82  76  81 E5        30.14R
KEY WEST NAS   CLEAR     81  73  76 NE6       30.14R
KEY WEST INTL  CLEAR     82  74  76 E7        30.14R

STATION/POSITION SKY/WX   TEMP    WIND        PRES    WAVE   SWELL
                          AIR SEA DIR/SP/G            HT/PER HT/PER
                          (F)     (DEG/KT/KT) (MB)    (FT/S) (FT/S)
VENICE                     76 85   90/  6/  7 1020.8R
NAPLES                     75 85  150/  2/  3 1020.6R
26.0N   85.6W              81 83   80/ 10/ 10 1020.7R   1
DRY TORTUGAS               82      70/  8/ 10 1020.3R
NW FL BAY                  84     100/  7/  8 1020.6
SAND KEY                   82     110/  8/  9 1020.5R
SOMBRERO KEY               81     100/  9/  9 1021.3R
LONG KEY                   82 87  110/  7/  8 1021.4R
MOLASSES REEF              81 82   90/  6/  7 1020.7R

$$
FLZ067-068-071>074-168-172>174-230500-
SOUTHEAST FLORIDA

CITY           SKY/WX    TMP DP  RH WIND       PRES   REMARKS
W PALM BEACH   MOCLDY    77  70  79 NW6       30.16R
FT LAUDER-EXEC MOCLDY    77  70  79 W7        30.16R
FT LAUDERDALE  MOCLDY    77  69  76 W8        30.16R
POMPANO BEACH  MOCLDY    79  71  76 CALM      30.15R
PEMBROKE PINES MOCLDY    76  69  79 W7        30.18R
OPA LOCKA      MOCLDY    75  68  78 NW6       30.17R
MIAMI          MOCLDY    76  66  71 NW5       30.16R
WEST KENDALL   MOCLDY    74  67  78 N8        30.16R
HOMESTEAD      PTCLDY    75  70  83 NW7       30.15R

STATION/POSITION SKY/WX   TEMP    WIND        PRES    WAVE   SWELL
                          AIR SEA DIR/SP/G            HT/PER HT/PER
                          (F)     (DEG/KT/KT) (MB)    (FT/S) (FT/S)
PORT EVERGLADES            80     280/  7/  9 1021.2R
VIRGINIA KEY               80 85  360/  2/  2 1020.4R
LAKE WORTH                 80 82  360/  6/  7 1020.3R
SETTLEMENT POINT           81     160/  2/  3 1021.9R

$$



USA.gov is the U.S. government's official web portal to all federal, state and local government web resources and services.